Regional Weather Roundup
Issued by NWS

Home | Current Version | Previous Version | Graphics & Text | Print | Product List | Glossary On
Versions: 1 2 3 4 5 6 7 8 9 10 11 12 13 14 15 16 17 18 19 20 21 22 23 24 25 26 27 28 29 30 31 32 33 34 35 36 37 38 39 40 41 42 43 44 45 46 47 48 49 50
000
ASUS43 KLSX 141407
RWRMO

WEATHER SUMMARY FOR MISSOURI
NATIONAL WEATHER SERVICE SPRINGFIELD MO
900 AM CDT SUN SEP 14 2014

NOTE: "FAIR" INDICATES FEW OR NO CLOUDS BELOW 12,000 FEET WITH NO
       SIGNIFICANT WEATHER AND/OR OBSTRUCTIONS TO VISIBILITY.
       CURRENT SKY AND/OR WEATHER CONDITIONS ARE NOT AVAILABLE FOR
       CHILLICOTHE AND FARMINGTON.

MOZ001>031-035>038-043-044-053-054-141500-
...NORTHERN AND WESTERN MISSOURI...

CITY           SKY/WX    TMP DP  RH WIND       PRES   REMARKS
KANSAS CTY INT MOSUNNY   57  48  72 SE7       30.25F
KANSAS C DTWN  PTSUNNY   59  48  67 E3        30.26S
LEE`S SUMMIT   CLOUDY    56  47  71 S5        30.27R
ST JOSEPH      MOSUNNY   57  48  72 S6        30.26R
CHILLICOTHE      N/A     55  47  74 S3        30.29S
KIRKSVILLE     CLOUDY    52  46  80 S7        30.30S

$$
MOZ066>068-077>081-088>096-101>105-141500-
...SOUTHWEST MISSOURI...

CITY           SKY/WX    TMP DP  RH WIND       PRES   REMARKS
SPRINGFIELD    MOSUNNY   57  49  74 S7        30.28S
JOPLIN         CLOUDY    58  53  84 SE3       30.28S

$$
MOZ032>034-039>042-045>050-055>058-069>072-141500-
...CENTRAL MISSOURI...

CITY           SKY/WX    TMP DP  RH WIND       PRES   REMARKS
COLUMBIA       CLOUDY    51  46  83 SE8       30.29F
JEFFERSON CITY CLOUDY    51  47  86 E5        30.30F
ROLLA          CLOUDY    53  43  68 SE8       30.29S
SEDALIA        CLOUDY    55  50  83 S5        30.28S
WHITEMAN AFB   MOSUNNY   55  50  83 S6        30.27R
OSAGE BEACH    CLOUDY    52  45  76 S5        30.29F

$$
MOZ051-052-059>065-141500-
...EAST CENTRAL MISSOURI...

CITY           SKY/WX    TMP DP  RH WIND       PRES   REMARKS
ST LOUIS INTL  MOSUNNY   56  48  74 CALM      30.32S
SPIRIT OF STL  SUNNY     52  48  86 CALM      30.31S FOG
ST CHARLES     MOSUNNY   54  52  93 CALM      30.32R

$$
MOZ072>076-082>087-097>100-106>115-141500-
...SOUTH CENTRAL AND SOUTHEAST MISSOURI...

CITY           SKY/WX    TMP DP  RH WIND       PRES   REMARKS
CAPE GIRARDEAU MOSUNNY   56  50  80 VRB3      30.30S
FARMINGTON     SUNNY     52  46  82 CALM      30.32S
POPLAR BLUFF   SUNNY     58  47  66 VRB3      30.29R
WEST PLAINS    SUNNY     56  43  61 E3        30.31R

$$


USA.gov is the U.S. government's official web portal to all federal, state and local government web resources and services.